Time,TemperatureF,DewpointF,PressureIn,WindDirection,WindDirectionDegrees,WindSpeedMPH,WindSpeedGustMPH,Humidity,HourlyPrecipIn,Conditions,Clouds,dailyrainin,SoftwareType,DateUTC
2013-10-02 00:14:00,43.6,38.0,29.90,SW,221,0.0,-999.0,82,-99.99,,,0.00,weatherlink.com 1.10,2013-10-02 05:14:00,
2013-10-02 03:12:00,39.2,36.0,29.94,SW,221,0.0,-999.0,87,-99.99,,,0.00,weatherlink.com 1.10,2013-10-02 08:12:00,
2013-10-02 03:13:00,39.2,36.0,29.94,SW,221,0.0,-999.0,87,-99.99,,,0.00,weatherlink.com 1.10,2013-10-02 08:13:00,
2013-10-02 03:28:00,38.9,36.0,29.94,SW,221,0.0,-999.0,88,-99.99,,,0.00,weatherlink.com 1.10,2013-10-02 08:28:00,
2013-10-02 03:43:00,38.6,35.0,29.95,SW,221,0.0,-999.0,88,-99.99,,,0.00,weatherlink.com 1.10,2013-10-02 08:43:00,
2013-10-02 03:58:00,38.3,35.0,29.95,SW,221,0.0,-999.0,88,-99.99,,,0.00,weatherlink.com 1.10,2013-10-02 08:58:00,
2013-10-02 04:14:00,38.0,35.0,29.95,SW,221,0.0,-999.0,88,-99.99,,,0.00,weatherlink.com 1.10,2013-10-02 09:14:00,
2013-10-02 04:29:00,37.8,35.0,29.95,SW,221,0.0,-999.0,88,-99.99,,,0.00,weatherlink.com 1.10,2013-10-02 09:29:00,
2013-10-02 04:44:00,37.6,34.0,29.96,SW,221,0.0,-999.0,88,-99.99,,,0.00,weatherlink.com 1.10,2013-10-02 09:44:00,
2013-10-02 04:59:00,37.3,34.0,29.96,SW,221,0.0,-999.0,89,-99.99,,,0.00,weatherlink.com 1.10,2013-10-02 09:59:00,
2013-10-02 05:14:00,37.2,34.0,29.97,SW,221,0.0,-999.0,89,-99.99,,,0.00,weatherlink.com 1.10,2013-10-02 10:14:00,
2013-10-02 05:29:00,37.0,34.0,29.98,SW,221,0.0,-999.0,90,-99.99,,,0.00,weatherlink.com 1.10,2013-10-02 10:29:00,
2013-10-02 05:44:00,37.0,35.0,29.98,SW,221,0.0,-999.0,91,-99.99,,,0.00,weatherlink.com 1.10,2013-10-02 10:44:00,
2013-10-02 05:59:00,36.9,35.0,29.98,SW,221,0.0,-999.0,91,-99.99,,,0.00,weatherlink.com 1.10,2013-10-02 10:59:00,
2013-10-02 06:14:00,36.8,34.0,29.98,SW,221,0.0,-999.0,90,-99.99,,,0.00,weatherlink.com 1.10,2013-10-02 11:14:00,
2013-10-02 06:29:00,36.5,34.0,29.98,SW,221,0.0,-999.0,90,-99.99,,,0.00,weatherlink.com 1.10,2013-10-02 11:29:00,
2013-10-02 06:44:00,36.2,34.0,29.99,SW,221,0.0,-999.0,90,-99.99,,,0.00,weatherlink.com 1.10,2013-10-02 11:44:00,
2013-10-02 06:59:00,36.0,33.0,29.99,SW,221,0.0,-999.0,90,-99.99,,,0.00,weatherlink.com 1.10,2013-10-02 11:59:00,
2013-10-02 07:14:00,36.0,34.0,30.00,SW,221,0.0,-999.0,91,-99.99,,,0.00,weatherlink.com 1.10,2013-10-02 12:14:00,
2013-10-02 07:29:00,36.0,34.0,30.01,SW,221,0.0,-999.0,91,-99.99,,,0.00,weatherlink.com 1.10,2013-10-02 12:29:00,
2013-10-02 07:44:00,36.0,34.0,30.01,SW,221,0.0,-999.0,92,-99.99,,,0.00,weatherlink.com 1.10,2013-10-02 12:44:00,
2013-10-02 07:59:00,36.2,34.0,30.01,SW,221,0.0,-999.0,92,-99.99,,,0.00,weatherlink.com 1.10,2013-10-02 12:59:00,
2013-10-02 08:14:00,36.8,35.0,30.01,SW,221,0.0,-999.0,94,-99.99,,,0.00,weatherlink.com 1.10,2013-10-02 13:14:00,
2013-10-02 08:29:00,37.5,36.0,30.02,SW,221,0.0,-999.0,95,-99.99,,,0.00,weatherlink.com 1.10,2013-10-02 13:29:00,
2013-10-02 08:44:00,38.5,38.0,30.02,SW,221,0.0,-999.0,96,-99.99,,,0.00,weatherlink.com 1.10,2013-10-02 13:44:00,
2013-10-02 08:59:00,39.9,39.0,30.02,SW,221,0.0,-999.0,96,-99.99,,,0.00,weatherlink.com 1.10,2013-10-02 13:59:00,
2013-10-02 09:15:00,41.6,41.0,30.03,SW,221,0.0,-999.0,98,-99.99,,,0.00,weatherlink.com 1.10,2013-10-02 14:15:00,
2013-10-02 09:30:00,43.6,43.0,30.04,SW,221,0.0,-999.0,98,-99.99,,,0.00,weatherlink.com 1.10,2013-10-02 14:30:00,
2013-10-02 09:45:00,45.8,46.0,30.03,SW,221,0.0,-999.0,99,-99.99,,,0.00,weatherlink.com 1.10,2013-10-02 14:45:00,
2013-10-02 10:00:00,47.9,48.0,30.03,SW,221,0.0,-999.0,99,-99.99,,,0.00,weatherlink.com 1.10,2013-10-02 15:00:00,
2013-10-02 10:15:00,50.1,50.0,30.02,SW,221,0.0,-999.0,99,-99.99,,,0.00,weatherlink.com 1.10,2013-10-02 15:15:00,
2013-10-02 10:30:00,52.6,52.0,30.02,SW,221,0.0,-999.0,99,-99.99,,,0.00,weatherlink.com 1.10,2013-10-02 15:30:00,
2013-10-02 10:45:00,55.1,53.0,30.01,SW,221,0.0,-999.0,91,-99.99,,,0.00,weatherlink.com 1.10,2013-10-02 15:45:00,
2013-10-02 11:00:00,59.8,48.0,30.00,SSW,202,0.0,-999.0,65,-99.99,,,0.00,weatherlink.com 1.10,2013-10-02 16:00:00,
2013-10-02 11:16:00,63.1,45.0,30.00,South,186,0.0,-999.0,52,-99.99,,,0.00,weatherlink.com 1.10,2013-10-02 16:16:00,
2013-10-02 11:31:00,65.5,46.0,29.99,NW,309,0.0,-999.0,49,-99.99,,,0.00,weatherlink.com 1.10,2013-10-02 16:31:00,
2013-10-02 11:46:00,67.4,45.0,29.99,SSW,210,0.0,-999.0,45,-99.99,,,0.00,weatherlink.com 1.10,2013-10-02 16:46:00,
2013-10-02 12:01:00,69.6,42.0,29.99,South,184,2.0,-999.0,37,-99.99,,,0.00,weatherlink.com 1.10,2013-10-02 17:01:00,
2013-10-02 12:16:00,71.1,45.0,29.99,SW,215,1.0,-999.0,39,-99.99,,,0.00,weatherlink.com 1.10,2013-10-02 17:16:00,
2013-10-02 12:31:00,72.1,41.0,29.98,South,188,1.0,-999.0,32,-99.99,,,0.00,weatherlink.com 1.10,2013-10-02 17:31:00,
2013-10-02 12:46:00,73.3,42.0,29.97,SSW,205,1.0,-999.0,32,-99.99,,,0.00,weatherlink.com 1.10,2013-10-02 17:46:00,
2013-10-02 13:01:00,74.6,43.0,29.96,North,5,0.0,-999.0,32,-99.99,,,0.00,weatherlink.com 1.10,2013-10-02 18:01:00,
2013-10-02 13:16:00,75.4,43.0,29.95,SW,232,1.0,-999.0,31,-99.99,,,0.00,weatherlink.com 1.10,2013-10-02 18:16:00,
2013-10-02 13:31:00,75.8,39.0,29.95,ESE,110,0.0,-999.0,27,-99.99,,,0.00,weatherlink.com 1.10,2013-10-02 18:31:00,
2013-10-02 13:46:00,76.7,40.0,29.94,WSW,242,2.0,-999.0,27,-99.99,,,0.00,weatherlink.com 1.10,2013-10-02 18:46:00,
2013-10-02 14:02:00,77.2,42.0,29.94,SW,215,1.0,-999.0,28,-99.99,,,0.00,weatherlink.com 1.10,2013-10-02 19:02:00,
2013-10-02 14:17:00,77.6,39.0,29.93,SW,232,1.0,-999.0,25,-99.99,,,0.00,weatherlink.com 1.10,2013-10-02 19:17:00,
2013-10-02 14:32:00,77.9,41.0,29.92,ESE,117,0.0,-999.0,27,-99.99,,,0.00,weatherlink.com 1.10,2013-10-02 19:32:00,
2013-10-02 14:47:00,78.5,42.0,29.92,WSW,238,3.0,-999.0,27,-99.99,,,0.00,weatherlink.com 1.10,2013-10-02 19:47:00,
2013-10-02 15:02:00,78.6,43.0,29.91,SW,217,0.0,-999.0,28,-99.99,,,0.00,weatherlink.com 1.10,2013-10-02 20:02:00,
2013-10-02 15:16:00,78.3,42.0,29.90,SW,225,0.0,-999.0,27,-99.99,,,0.00,weatherlink.com 1.10,2013-10-02 20:16:00,
2013-10-02 15:31:00,78.5,42.0,29.89,SSW,196,1.0,-999.0,27,-99.99,,,0.00,weatherlink.com 1.10,2013-10-02 20:31:00,
2013-10-02 15:46:00,78.3,41.0,29.88,SW,220,2.0,-999.0,26,-99.99,,,0.00,weatherlink.com 1.10,2013-10-02 20:46:00,
2013-10-02 16:01:00,77.7,42.0,29.87,SE,128,1.0,-999.0,28,-99.99,,,0.00,weatherlink.com 1.10,2013-10-02 21:01:00,
2013-10-02 16:16:00,77.0,47.0,29.87,WSW,251,0.0,-999.0,34,-99.99,,,0.00,weatherlink.com 1.10,2013-10-02 21:16:00,
2013-10-02 16:31:00,76.0,46.0,29.87,SSW,192,0.0,-999.0,35,-99.99,,,0.00,weatherlink.com 1.10,2013-10-02 21:31:00,
2013-10-02 16:46:00,74.6,46.0,29.86,SSW,192,0.0,-999.0,36,-99.99,,,0.00,weatherlink.com 1.10,2013-10-02 21:46:00,
2013-10-02 17:01:00,73.3,46.0,29.86,West,273,0.0,-999.0,38,-99.99,,,0.00,weatherlink.com 1.10,2013-10-02 22:01:00,
2013-10-02 17:17:00,72.1,44.0,29.87,West,273,0.0,-999.0,36,-99.99,,,0.00,weatherlink.com 1.10,2013-10-02 22:17:00,
2013-10-02 17:32:00,71.1,46.0,29.86,West,273,0.0,-999.0,41,-99.99,,,0.00,weatherlink.com 1.10,2013-10-02 22:32:00,
2013-10-02 17:47:00,70.3,45.0,29.87,West,273,0.0,-999.0,41,-99.99,,,0.00,weatherlink.com 1.10,2013-10-02 22:47:00,
2013-10-02 18:02:00,69.6,44.0,29.87,West,273,0.0,-999.0,40,-99.99,,,0.00,weatherlink.com 1.10,2013-10-02 23:02:00,
2013-10-02 18:17:00,69.1,44.0,29.86,West,273,0.0,-999.0,41,-99.99,,,0.00,weatherlink.com 1.10,2013-10-02 23:17:00,
2013-10-02 18:32:00,68.4,47.0,29.85,West,273,0.0,-999.0,46,-99.99,,,0.00,weatherlink.com 1.10,2013-10-02 23:32:00,
2013-10-02 18:47:00,67.6,47.0,29.86,West,273,0.0,-999.0,47,-99.99,,,0.00,weatherlink.com 1.10,2013-10-02 23:47:00,
2013-10-02 19:02:00,66.4,50.0,29.86,West,273,0.0,-999.0,55,-99.99,,,0.00,weatherlink.com 1.10,2013-10-03 00:02:00,
2013-10-02 19:17:00,64.8,48.0,29.85,West,273,0.0,-999.0,54,-99.99,,,0.00,weatherlink.com 1.10,2013-10-03 00:17:00,
2013-10-02 19:32:00,63.7,47.0,29.84,West,273,0.0,-999.0,55,-99.99,,,0.00,weatherlink.com 1.10,2013-10-03 00:32:00,
2013-10-02 19:47:00,62.6,45.0,29.84,West,273,0.0,-999.0,52,-99.99,,,0.00,weatherlink.com 1.10,2013-10-03 00:47:00,
2013-10-02 20:02:00,62.0,48.0,29.84,West,273,0.0,-999.0,60,-99.99,,,0.00,weatherlink.com 1.10,2013-10-03 01:02:00,
2013-10-02 20:17:00,61.2,48.0,29.84,West,273,0.0,-999.0,62,-99.99,,,0.00,weatherlink.com 1.10,2013-10-03 01:17:00,
2013-10-02 20:32:00,60.5,46.0,29.84,West,273,0.0,-999.0,60,-99.99,,,0.00,weatherlink.com 1.10,2013-10-03 01:32:00,
2013-10-02 20:47:00,60.1,45.0,29.82,West,273,0.0,-999.0,58,-99.99,,,0.00,weatherlink.com 1.10,2013-10-03 01:47:00,
2013-10-02 21:02:00,59.9,45.0,29.82,East,82,0.0,-999.0,58,-99.99,,,0.00,weatherlink.com 1.10,2013-10-03 02:02:00,
2013-10-02 21:17:00,59.8,44.0,29.81,East,82,0.0,-999.0,57,-99.99,,,0.00,weatherlink.com 1.10,2013-10-03 02:17:00,
2013-10-02 21:32:00,59.8,46.0,29.80,East,82,0.0,-999.0,60,-99.99,,,0.00,weatherlink.com 1.10,2013-10-03 02:32:00,
2013-10-02 21:47:00,59.9,45.0,29.80,East,82,0.0,-999.0,59,-99.99,,,0.00,weatherlink.com 1.10,2013-10-03 02:47:00,
2013-10-02 22:02:00,60.4,45.0,29.80,East,82,0.0,-999.0,58,-99.99,,,0.00,weatherlink.com 1.10,2013-10-03 03:02:00,
2013-10-02 22:17:00,60.9,44.0,29.80,East,81,2.0,-999.0,55,-99.99,,,0.00,weatherlink.com 1.10,2013-10-03 03:17:00,
2013-10-02 22:32:00,61.8,46.0,29.81,WSW,241,4.0,-999.0,57,-99.99,,,0.00,weatherlink.com 1.10,2013-10-03 03:32:00,
2013-10-02 22:47:00,62.3,48.0,29.81,North,5,2.0,-999.0,60,-99.99,,,0.00,weatherlink.com 1.10,2013-10-03 03:47:00,
2013-10-02 23:02:00,61.5,52.0,29.84,ENE,78,0.0,-999.0,71,-99.99,,,0.02,weatherlink.com 1.10,2013-10-03 04:02:00,
2013-10-02 23:17:00,60.2,52.0,29.82,ENE,77,0.0,-999.0,75,-99.99,,,0.02,weatherlink.com 1.10,2013-10-03 04:17:00,
2013-10-02 23:32:00,59.2,54.0,29.80,ENE,77,0.0,-999.0,82,-99.99,,,0.07,weatherlink.com 1.10,2013-10-03 04:32:00,
2013-10-02 23:47:00,58.1,53.0,29.81,WSW,252,0.0,-999.0,84,-99.99,,,0.09,weatherlink.com 1.10,2013-10-03 04:47:00,